Regional Weather Roundup
Issued by NWS Midland/Odessa, TX

Skip options and go directly to product.
Home | Oldest Version | Previous Version | Current Version | All | Text Only | Save Text | Print | Product List | Glossary Off

Skip product version selection by date and time.   

176
ASUS44 KMAF 060001
RWRMAF
MIDLAND AREA WEATHER ROUNDUP
NATIONAL WEATHER SERVICE MIDLAND TX
700 PM CDT SUN JUL 05 2015

...IN SOUTHWEST TEXAS AND SOUTHEAST NEW MEXICO...

CITY           SKY/WX    TMP DP  RH WIND       PRES   REMARKS
ALPINE         PTSUNNY   86  57  37 S8        30.09S
ANDREWS        PTSUNNY   92  61  36 S13G20    29.92S
ARTESIA        CLOUDY    90  61  37 S15G21    29.93S
BIG SPRING     MOSUNNY   94  64  36 SE17      29.93F
CARLSBAD       PTSUNNY   88  60  38 W12       29.90S
DRYDEN           N/A     90  66  45 S10G21    29.93R
FORT STOCKTON  CLOUDY    88  64  44 S15       29.93F
GUAD PASS      LGT RAIN  83  59  44 SW12      30.10F
HOBBS          MOSUNNY   93  54  26 SE10      29.94F
MARFA          PTSUNNY  N/A N/A N/A SE9       30.08S
MIDLAND AIRPK  MOSUNNY   93  61  34 S12G20    29.92S
MIDLAND INTL   SUNNY     92  64  39 S20G26    29.91S
ODESSA         SUNNY     90  64  42 S23       29.93S
PECOS          MOSUNNY   91  61  36 SE17G23   29.87F
PRESIDIO       FAIR      96  56  25 CALM      29.89S
SEMINOLE       MOSUNNY   95  55  25 S9        29.94S
SNYDER         SUNNY     89  68  48 SE12      29.93F
WINK           MOSUNNY   93  64  38 SE17G25   29.87F
$$
...OTHER STATIONS IN TEXAS...

CITY           SKY/WX    TMP DP  RH WIND       PRES   REMARKS
ABILENE        MOSUNNY   90  62  39 S15G24    29.92S
AMARILLO       MOSUNNY   88  56  33 S16       29.94F
AUSTIN         MOSUNNY   87  72  60 S16G23    29.94F
BROWNSVILLE    PTSUNNY   86  77  74 SE22G28   29.95S
CORPUS CHRISTI MOSUNNY   86  75  69 SE23G31   29.94F
DALLAS FTW     MOSUNNY   91  67  44 S18G25    29.91F
DEL RIO        SUNNY     91  67  44 SE18G25   29.89S
EL PASO        MOSUNNY   90  58  33 W14       29.95F
HOUSTON INT    MOSUNNY   89  73  59 S9        29.98S
LUBBOCK        PTSUNNY   91  63  39 S14       29.94S
SAN ANGELO     SUNNY     91  63  39 S10       29.92F
SAN ANTONIO    MOSUNNY   88  71  57 SE16      29.94F
WACO           MOSUNNY   90  70  51 S18       29.93F
WICHITA FALLS  NOT AVBL
$$
...OTHER LOCATIONS IN NEW MEXICO...

CITY           SKY/WX    TMP DP  RH WIND       PRES   REMARKS
ALAMAGORDO     PTSUNNY   90  54  29 SW8       29.97S
ALBUQUERQUE    CLOUDY    71  62  73 SE15      30.07F
CANNON AFB     MOSUNNY   87  59  39 S9        29.96F
CLOVIS         MOSUNNY   88  55  33 SE13        N/A
HOLLOMAN AFB   PTSUNNY   90  54  29 S8        29.94S
ROSWELL        CLOUDY    90  57  32 SW8       29.92S
RUIDOSO        PTSUNNY   75  52  43 SE5       30.19F
SANTA FE       MOSUNNY   83  46  27 SW7       30.10S
TRUTH OR CONSE LGT RAIN  74  60  61 N12G37    30.02F
TUCUMCARI      MOSUNNY   94  52  24 S16G24    29.89F
$$

USA.gov is the U.S. government's official web portal to all federal, state and local government web resources and services.